Regional Weather Roundup
Issued by NWS

Home | Current Version | Previous Version | Graphics & Text | Print | Product List | Glossary On
Versions: 1 2 3 4 5 6 7 8 9 10 11 12 13 14 15 16 17 18 19 20 21 22 23 24 25 26 27 28 29 30 31 32 33 34 35 36 37 38 39 40 41 42 43 44 45 46 47 48 49 50
000
ASUS43 KDTX 202310
RWRMI
MICHIGAN HOURLY REGIONAL WEATHER ROUNDUP
NATIONAL WEATHER SERVICE DETROIT/PONTIAC MI
600 PM EST MON NOV 20 2017

NOTE: "FAIR" INDICATES FEW OR NO CLOUDS BELOW 12,000 FEET WITH NO
SIGNIFICANT WEATHER AND/OR OBSTRUCTION TO VISIBILITY.

MIZ047>049-052>055-059>063-066>070-074>076-081>083-210000-
SOUTHEAST LOWER MICHIGAN

CITY           SKY/WX    TMP DP  RH WIND       PRES   REMARKS
ADRIAN         CLEAR     42  29  59 SW18      29.89F
ALMA           CLEAR     42  31  65 S9G17     29.74F
ANN ARBOR      CLEAR     42  30  62 S13       29.85F
BAD AXE        CLEAR     36  29  76 S6        29.76F WCI  31
CARO           CLEAR     44  30  57 S7        29.75F
DETROIT CITY   CLEAR    N/A N/A N/A SW18G28   29.87F
DETROIT        PTCLDY    44  29  55 S16       29.88F
FLINT          CLEAR     44  29  55 S12       29.79F
GROSSE ILE     CLEAR     44  32  63 S21G28    29.88F
HILLSDALE      CLEAR     43  28  56 S12G17    29.85F
HOWELL         CLEAR     45  29  53 S14G24    29.80F

CITY           SKY/WX    TMP DP  RH WIND       PRES   REMARKS
JACKSON        CLEAR     46  28  49 S14       29.83F
LAMBERTVILLE   CLEAR     45  29  54 SW14      29.90F
LANSING        CLEAR     47  30  51 SW18G28   29.78F
LAPEER         FAIR      43  29  58 S9        29.80S
MASON          CLEAR     46  30  54 S6        29.80S
MONROE         CLEAR     45  28  51 S14       29.89S
MT. CLEMENS    MOCLDY    43  31  63 S14       29.84S
PONTIAC        MOCLDY    43  29  57 S14G20    29.82S
PORT HOPE        N/A     37  29  72 CALM      29.74F
PORT HURON     CLEAR     43  30  61 S12G24    29.84S
TRI CITIES     CLEAR     45  31  58 S12       29.75F
MIDLAND        FAIR      42  30  62 S6        29.73F
TROY           CLEAR     47  28  47 S13G28    29.86S
SAGINAW HB     CLEAR     43  32  65 S9        29.75F
$$
MIZ043>046-050>051-056>058-064>065-071>073-077>080-210000-
SOUTHWEST LOWER MICHIGAN

CITY           SKY/WX    TMP DP  RH WIND       PRES   REMARKS
BATTLE CREEK   CLOUDY    45  30  55 S18       29.81F
BENTON HARBOR  CLEAR     49  31  49 S16G23    29.78F
BIG RAPIDS     CLOUDY    43  30  60 S9        29.69F
COLDWATER      CLEAR     45  27  49 SW14G22   29.84F
FREMONT        FAIR      45  35  69 S18       29.69F
HOLLAND        CLOUDY    47  32  56 S16G24    29.74F
GRAND RAPIDS   MOCLDY    47  32  56 S16G26    29.75F
IONIA          FAIR      45  30  57 S13       29.75S
KALAMAZOO      CLEAR     46  28  49 S17       29.81F
LUDINGTON      CLOUDY    44  34  66 S13G18    29.65F
MARSHALL       CLEAR     46  27  49 S10G16    29.82S
MOUNT PLEASANT CLOUDY    44  29  56 S5        29.71F
MUSKEGON       CLOUDY    49  37  63 S20G29    29.71F
SOUTH HAVEN    CLEAR     49  31  50 S12G20    29.76F
$$
MIZ016>042-210000-
NORTHERN LOWER MICHIGAN

CITY           SKY/WX    TMP DP  RH WIND       PRES   REMARKS
ALPENA         CLOUDY    37  32  82 S8        29.68F WCI  31
BEAVER ISLAND  CLOUDY    42  35  79 S5        29.58F
BELLAIRE       CLEAR     41  36  80 S6        29.62F
CADILLAC       CLOUDY    39  33  78 S10G16    29.64F WCI  32
CHARLEVOIX     CLEAR     41  33  73 SE6       29.62F
FRANKFORT      CLOUDY    45  34  66 S12G21    29.61F
GAYLORD        PTCLDY    38  31  76 S8        29.61F WCI  32
GRAYLING       PTCLDY    40  32  74 S7        29.66F WCI  35
HARBOR SPRINGS PTCLDY    40  32  73 CALM      29.61F
MANISTEE       CLOUDY    44  34  67 S9        29.63F
OSCODA         PTCLDY    39  28  66 SW10      29.71F WCI  32
PELLSTON       CLOUDY    37  31  78 SE5       29.62F WCI  33
ROGERS CITY    PTCLDY    36  32  84 SE5       29.66F WCI  32
TRAVERSE CITY  CLOUDY    44  33  65 VRB6      29.60F
$$
MIZ007>008-015-210000-
EASTERN UPPER MICHIGAN

CITY           SKY/WX    TMP DP  RH WIND       PRES   REMARKS
KINROSS        PTCLDY    35  31  85 SE12      29.61F WCI  27
MACKINAC ISLAN PTCLDY    39  32  75 SE6       29.60F
NEWBERRY       CLOUDY    38  37  97 S12       29.56F WCI  31
S. S. MARIE    CLOUDY    36  30  79 E7        29.62F WCI  30
MUNISING         N/A     39  35  86 S12G17    29.49F WCI  32
$$
MIZ004>006-011>014-085-210000-
CENTRAL UPPER MICHIGAN

CITY           SKY/WX    TMP DP  RH WIND       PRES   REMARKS
MANISTIQUE     CLOUDY    43  37  81 S16G25    29.55F
ESCANABA       PTCLDY    42  34  73 S13       29.53F
MENOMINEE      CLOUDY    40  33  76 S10       29.52F WCI  33
SAWYER-GWINN   CLEAR     36  30  80 S13G18    29.48S WCI  27
$$
MIZ001>003-009>011-084-210000-
WESTERN UPPER MICHIGAN

CITY           SKY/WX    TMP DP  RH WIND       PRES   REMARKS
IRON MOUNTAIN  CLOUDY    37  27  67 S7        29.48S WCI  32
HOUGHTON       CLOUDY    34  27  75 SE9       29.36F WCI  27
COPPER HARBOR    N/A     39  31  72 SW10G22   29.36F WCI  32
IRONWOOD       CLOUDY    41  29  62 S14G25    29.35F
$$

ABBREVIATIONS USED IN REMARKS
   TC - TEMPERATURE IN CELSIUS
  WCI - WIND CHILL INDEX
   HX - HEAT INDEX
  VSB - VISIBILITY





USA.gov is the U.S. government's official web portal to all federal, state and local government web resources and services.